Terug naar catalogus

STARLINK-37077

ActiefCommunicatieVLEO
NORAD 68169·PAYLOAD·🇺🇸 United States

Gelanceerd Mar 14, 2026 vanaf Vandenberg Space Force Base

Loading…

Volgende Passages (komende 24 uur)

TLE

VersSource: CelesTrak SupGP

Epoch: Sep 14, 2026, 21:37 UTC

1 68169C 26050C   26257.90118056 -.00034236  00000+0 -10116-2 0  2572
2 68169  53.1574 104.1561 0001341  83.0120 322.4106 15.34404978    12

Volg STARLINK-37077 in realtime met AllMySat

Download on the App Store